Mercury, NV

5:19 AM PST on February 12, 2016 (GMT -0800)
Mercury

Weather History for KDRA - January, 2014

Change the Weather History Date:

Monday, January 27, 2014

  Actual Average Record
Temperature  
Mean Temperature 48 °F 45 °F  
Max Temperature 66 °F 56 °F 68 °F (1992)
Min Temperature 30 °F 33 °F 19 °F (1979)
Degree Days  
Heating Degree Days 17    
Cooling Degree Days 0    
Moisture  
Dew Point 7 °F    
Average Humidity 19    
Maximum Humidity 31    
Minimum Humidity 4    
Precipitation  
Precipitation 0.00 in 0.02 in 0.36 in (2008)
Month to date precipitation 0.65  
Year to date precipitation 0.65  
Sea Level Pressure  
Sea Level Pressure 30.02 in    
Wind  
Wind Speed 4 mph (NE)    
Max Wind Speed 13 mph    
Max Gust Speed -    
Visibility 10 miles    
Events      
T = Trace of Precipitation, MM = Missing Value Source: NWS Daily Summary

Daily Weather History Graph

Daily Weather History Graph

Search for Another Location

Airport or City:

Trip Planner

Search our weather history database for the weather conditions in past years. The results will help you decide how hot, cold, wet, or windy it might be!

Date:

Astronomy

Jan. 27, 2014 Rise Set
Actual Time 6:49 AM PST 5:04 PM PST
Civil Twilight 6:22 AM PST 5:32 PM PST
Nautical Twilight 5:50 AM PST 6:03 PM PST
Astronomical Twilight 5:20 AM PST 6:33 PM PST
Moon 3:34 AM PST (1/27) 1:56 PM PST (1/27)
Length of Visible Light 11h 10m
Length of Day
10h 15m
Waning Crescent, 14% of the Moon is Illuminated
Jan 27
Waning Crescent
Jan 30
New
Feb 6
First Quarter
Feb 14
Full
Feb 22
Last Quarter

Hourly Weather History & Observations

Time (PST) Temp. Windchill Dew Point Humidity Pressure Visibility Wind Dir Wind Speed Gust Speed Precip Events Conditions
12:52 AM 39.0 °F 36.8 °F 10.0 °F 30% 29.99 in 10.0 mi East 3.5 mph - N/A   Clear
1:52 AM 39.9 °F 36.7 °F 10.0 °F 29% 30.00 in 10.0 mi East 4.6 mph - N/A   Clear
2:52 AM 39.0 °F - 9.0 °F 29% 29.99 in 10.0 mi Calm Calm - N/A   Clear
3:52 AM 41.0 °F 39.0 °F 6.1 °F 24% 29.99 in 10.0 mi NE 3.5 mph - N/A   Clear
4:52 AM 37.9 °F 35.5 °F 6.1 °F 27% 30.00 in 10.0 mi North 3.5 mph - N/A   Clear
5:52 AM 34.0 °F - 3.9 °F 28% 30.03 in 10.0 mi Calm Calm - N/A   Clear
6:52 AM 35.1 °F 31.0 °F 7.0 °F 31% 30.05 in 10.0 mi East 4.6 mph - N/A   Clear
7:52 AM 39.0 °F - 8.1 °F 28% 30.08 in 10.0 mi Calm Calm - N/A   Clear
8:47 AM 52.0 °F - 9.0 °F 18% 30.10 in 10.0 mi NNE 12.7 mph - N/A   Clear
8:52 AM 52.0 °F - 9.0 °F 18% 30.06 in 10.0 mi NNE 12.7 mph - N/A   Clear
9:52 AM 55.9 °F - 9.0 °F 15% 30.07 in 10.0 mi NNE 11.5 mph - N/A   Clear
10:52 AM 60.1 °F - 9.0 °F 13% 30.05 in 10.0 mi NNE 10.4 mph - N/A   Clear
11:52 AM 63.0 °F - 9.0 °F 12% 30.01 in 10.0 mi North 10.4 mph - N/A   Clear
12:52 PM 64.0 °F - 5.0 °F 10% 29.98 in 10.0 mi Variable 3.5 mph - N/A   Clear
1:52 PM 64.9 °F - 6.1 °F 10% 29.97 in 10.0 mi SW 11.5 mph - N/A   Clear
2:52 PM 64.9 °F - 5.0 °F 9% 29.97 in 10.0 mi Variable 4.6 mph - N/A   Clear
3:52 PM 64.9 °F - 3.9 °F 9% 29.97 in 10.0 mi SE 3.5 mph - N/A   Clear
4:52 PM 62.1 °F - 3.9 °F 10% 29.99 in 10.0 mi Calm Calm - N/A   Clear
5:52 PM 54.0 °F - 7.0 °F 15% 30.02 in 10.0 mi NE 4.6 mph - N/A   Clear
6:52 PM 50.0 °F - 8.1 °F 18% 30.04 in 10.0 mi Calm Calm - N/A   Clear
7:52 PM 46.0 °F 44.8 °F 7.0 °F 20% 30.05 in 10.0 mi East 3.5 mph - N/A   Clear
8:52 PM 44.1 °F - 7.0 °F 22% 30.05 in 10.0 mi Calm Calm - N/A   Clear
9:52 PM 41.0 °F - 8.1 °F 26% 30.06 in 10.0 mi Calm Calm - N/A   Clear
10:52 PM 41.0 °F 38.0 °F 9.0 °F 27% 30.06 in 10.0 mi East 4.6 mph - N/A   Clear
11:52 PM 39.9 °F - 9.0 °F 28% 30.05 in 10.0 mi Calm Calm - N/A   Clear